Погода в Садовом

Россия / Ульяновская область     53°07′56″N   47°39′44″E
темп.,
°C
ветер,
м/с
пор.,
м/с
влажн.,
%
обл.,
%
осадки,
мм/ч
давл.,
гПа
погр.,
м
14 мая, пт
пт1401:00+14вюв23835 1.3 102040
04:00+13вюв2277100 1.3 102015
07:00+15вюв2474100 0.0 1020128
10:00+21ююв465372 0.0 1020465
13:00+25ю6746100 0.0 10201017
16:00+26ю57410 0.0 10201515
19:00+24ююв35565 0.0 1019125
22:00+19вюв2260100 0.0 101914
15 мая, сб
сб1501:00+17вюв226384 0.0 101914
04:00+15вюв226076 0.0 102029
07:00+17юв256092 0.0 1020144
10:00+23ююв484139 0.0 1020466
13:00+27ю69305 0.0 1019979
16:00+28ю610325 0.0 10191582
19:00+24ююв411445 0.0 1018317
22:00+19юв235096 0.0 101834
16 мая, вс
вс1601:00+17ююв225215 0.0 101826
04:00+16ююв22556 0.0 101821
07:00+18юв245865 0.0 1018111
10:00+25ю474052 0.0 1018525
13:00+27ююз683332 0.0 10171552
16:00+28ююз593285 0.0 10172199
19:00+25юз114898 0.0 101612
22:00+21юв1151100 0.0 101711
17 мая, пн
пн1701:00+19вюв1153100 0.0 101711
04:00+19в1154100 0.0 101711
07:00+20ююв225866 0.1 101739
10:00+26юв3541100 0.1 1017396
13:00+29ю473168 0.0 10171689
16:00+29ю4828100 0.0 10172674
19:00+26юв2244100 0.0 101624
22:00+21вюв224588 0.0 101711
18 мая, вт
вт1801:00+19вюв114989 0.0 101711
04:00+17в125299 0.0 101711
07:00+19в2255100 0.0 101761
10:00+24юв4642100 0.0 1016495
13:00+27ю463490 0.0 1016959
16:00+29ю3526100 0.0 10151568
19:00+26в224365 0.0 101517
22:00+21вюв224482 0.0 101511